When you browse on this site, cookies collect data to enhance your experience and personalize the content and advertising you see.
Visit our Privacy Policy to learn more. By continuing to use the site, you agree to this use of cookies and data.
  • In Spain
  • List of Countries
  • For 7 days
  • Water Temperature
  • Weather Map
  • Weather Widgets
  • user-avatar
    Login

    Hourly Weather Kipungo

    Today, 17 October, Thursday

    Time Temperature Precipitation Wind Pressure Humidity
    00:00 +24°C° 0 mm 1 mps 653 mmHg 62%
    01:00 +21°C° 0 mm 2 mps 653 mmHg 67%
    02:00 +22°C° 0 mm 1 mps 653 mmHg 69%
    03:00 +21°C° 0 mm 1 mps 652 mmHg 71%
    04:00 +19°C° 0 mm 0 mps 652 mmHg 73%
    05:00 +20°C° 0 mm 0 mps 653 mmHg 68%
    06:00 +21°C° 0 mm 0 mps 654 mmHg 63%
    07:00 +23°C° 0 mm 0 mps 655 mmHg 56%
    08:00 +27°C° 0 mm 1 mps 655 mmHg 46%
    09:00 +30°C° 0 mm 2 mps 655 mmHg 37%
    10:00 +33°C° 0 mm 3 mps 656 mmHg 27%
    11:00 +35°C° 0 mm 3 mps 655 mmHg 24%
    12:00 +36°C° 0 mm 3 mps 655 mmHg 20%
    13:00 +37°C° 0 mm 3 mps 655 mmHg 14%
    14:00 +37°C° 0 mm 3 mps 654 mmHg 15%
    15:00 +37°C° 0 mm 2 mps 654 mmHg 15%
    16:00 +36°C° 0 mm 2 mps 653 mmHg 15%
    17:00 +34°C° 0 mm 2 mps 653 mmHg 18%
    18:00 +31°C° 0 mm 1 mps 654 mmHg 21%
    19:00 +30°C° 0 mm 1 mps 654 mmHg 23%
    20:00 +28°C° 0 mm 2 mps 654 mmHg 36%
    21:00 +26°C° 0 mm 2 mps 654 mmHg 49%
    22:00 +25°C° 0 mm 3 mps 654 mmHg 62%
    23:00 +24°C° 0 mm 3 mps 654 mmHg 68%

    Tomorrow, 18 October, Friday

    Time Temperature Precipitation Wind Pressure Humidity
    00:00 +23°C° 0 mm 2 mps 654 mmHg 73%
    01:00 +21°C° 0 mm 2 mps 654 mmHg 78%
    02:00 +21°C° 0 mm 2 mps 653 mmHg 81%
    03:00 +20°C° 0 mm 2 mps 653 mmHg 84%
    04:00 +21°C° 0 mm 1 mps 652 mmHg 88%
    05:00 +21°C° 0 mm 1 mps 653 mmHg 81%
    06:00 +22°C° 0 mm 1 mps 653 mmHg 74%
    07:00 +23°C° 0 mm 1 mps 654 mmHg 68%
    08:00 +27°C° 0 mm 1 mps 655 mmHg 53%
    09:00 +31°C° 0 mm 1 mps 656 mmHg 38%
    10:00 +34°C° 0 mm 1 mps 656 mmHg 23%
    11:00 +36°C° 0 mm 2 mps 656 mmHg 20%
    12:00 +37°C° 0 mm 2 mps 655 mmHg 17%
    13:00 +38°C° 0 mm 3 mps 655 mmHg 14%
    14:00 +37°C° 0 mm 3 mps 654 mmHg 14%
    15:00 +37°C° 0 mm 3 mps 653 mmHg 15%
    16:00 +37°C° 0 mm 3 mps 653 mmHg 15%
    17:00 +35°C° 0 mm 2 mps 653 mmHg 19%
    18:00 +32°C° 0 mm 2 mps 653 mmHg 23%
    19:00 +30°C° 0 mm 1 mps 653 mmHg 27%
    20:00 +28°C° 0 mm 2 mps 653 mmHg 36%
    21:00 +27°C° 0 mm 2 mps 654 mmHg 45%
    22:00 +25°C° 0 mm 2 mps 654 mmHg 54%
    23:00 +24°C° 0 mm 2 mps 653 mmHg 58%

    Day after tomorrow, 19 October, Saturday

    Time Temperature Precipitation Wind Pressure Humidity
    00:00 +24°C° 0 mm 2 mps 653 mmHg 61%
    01:00 +23°C° 0 mm 2 mps 653 mmHg 65%
    02:00 +21°C° 0 mm 2 mps 652 mmHg 66%
    03:00 +21°C° 0 mm 2 mps 652 mmHg 68%
    04:00 +21°C° 0 mm 1 mps 652 mmHg 69%
    05:00 +22°C° 0 mm 1 mps 652 mmHg 64%
    06:00 +23°C° 0 mm 1 mps 653 mmHg 59%
    07:00 +24°C° 0 mm 1 mps 654 mmHg 55%
    08:00 +27°C° 0 mm 1 mps 654 mmHg 43%
    09:00 +30°C° 0 mm 2 mps 655 mmHg 32%
    10:00 +35°C° 0 mm 2 mps 656 mmHg 21%
    11:00 +36°C° 0 mm 2 mps 655 mmHg 18%
    12:00 +37°C° 0 mm 3 mps 655 mmHg 14%
    13:00 +38°C° 0 mm 3 mps 654 mmHg 11%
    14:00 +38°C° 0 mm 3 mps 654 mmHg 11%
    15:00 +38°C° 0 mm 3 mps 653 mmHg 11%
    16:00 +37°C° 0 mm 3 mps 652 mmHg 11%
    17:00 +35°C° 0 mm 2 mps 652 mmHg 13%
    18:00 +32°C° 0 mm 2 mps 653 mmHg 16%
    19:00 +29°C° 0 mm 1 mps 653 mmHg 19%
    20:00 +28°C° 0 mm 1 mps 653 mmHg 29%
    21:00 +26°C° 0 mm 2 mps 653 mmHg 39%
    22:00 +25°C° 0 mm 3 mps 653 mmHg 49%
    23:00 +24°C° 0 mm 2 mps 653 mmHg 55%

    20 October, Sunday

    Time Temperature Precipitation Wind Pressure Humidity
    00:00 +23°C° 0 mm 2 mps 652 mmHg 60%
    01:00 +21°C° 0 mm 2 mps 652 mmHg 65%
    02:00 +20°C° 0 mm 2 mps 652 mmHg 69%
    03:00 +20°C° 0 mm 1 mps 652 mmHg 72%
    04:00 +20°C° 0 mm 1 mps 652 mmHg 75%
    05:00 +21°C° 0 mm 1 mps 652 mmHg 69%
    06:00 +22°C° 0 mm 1 mps 653 mmHg 63%
    07:00 +23°C° 0 mm 1 mps 654 mmHg 57%
    08:00 +27°C° 0 mm 1 mps 655 mmHg 44%
    09:00 +32°C° 0 mm 1 mps 656 mmHg 31%
    10:00 +36°C° 0 mm 1 mps 657 mmHg 18%
    11:00 +37°C° 0 mm 1 mps 656 mmHg 15%
    12:00 +38°C° 0 mm 2 mps 655 mmHg 11%
    13:00 +39°C° 0 mm 3 mps 654 mmHg 8%
    14:00 +39°C° 0 mm 3 mps 654 mmHg 9%
    15:00 +38°C° 0 mm 3 mps 653 mmHg 9%
    16:00 +38°C° 0 mm 3 mps 653 mmHg 9%
    17:00 +36°C° 0 mm 3 mps 653 mmHg 11%
    18:00 +32°C° 0 mm 2 mps 653 mmHg 14%
    19:00 +30°C° 0 mm 1 mps 653 mmHg 16%
    20:00 +28°C° 0 mm 1 mps 653 mmHg 26%
    21:00 +27°C° 0 mm 2 mps 653 mmHg 36%
    22:00 +25°C° 0 mm 3 mps 653 mmHg 46%
    23:00 +24°C° 0 mm 2 mps 653 mmHg 51%

    21 October, Monday

    Time Temperature Precipitation Wind Pressure Humidity
    00:00 +24°C° 0 mm 2 mps 652 mmHg 56%
    01:00 +23°C° 0 mm 2 mps 652 mmHg 61%
    02:00 +21°C° 0 mm 2 mps 652 mmHg 64%
    03:00 +20°C° 0 mm 2 mps 652 mmHg 67%
    04:00 +21°C° 0 mm 1 mps 652 mmHg 71%
    05:00 +21°C° 0 mm 2 mps 652 mmHg 67%
    06:00 +21°C° 0 mm 2 mps 653 mmHg 63%
    07:00 +23°C° 0 mm 2 mps 653 mmHg 59%
    08:00 +28°C° 0 mm 2 mps 654 mmHg 45%
    09:00 +32°C° 0 mm 1 mps 655 mmHg 31%
    10:00 +36°C° 0 mm 1 mps 656 mmHg 17%
    11:00 +39°C° 0 mm 1 mps 656 mmHg 14%
    12:00 +40°C° 0 mm 1 mps 655 mmHg 11%
    13:00 +42°C° 0 mm 1 mps 655 mmHg 8%
    14:00 +41°C° 0 mm 2 mps 654 mmHg 8%
    15:00 +40°C° 0 mm 2 mps 653 mmHg 8%
    16:00 +39°C° 0 mm 2 mps 652 mmHg 9%
    17:00 +36°C° 0 mm 3 mps 652 mmHg 15%
    18:00 +33°C° 0 mm 3 mps 652 mmHg 22%
    19:00 +29°C° 0 mm 4 mps 652 mmHg 29%
    20:00 +28°C° 0 mm 4 mps 653 mmHg 38%
    21:00 +26°C° 0 mm 4 mps 653 mmHg 48%
    22:00 +23°C° 0 mm 4 mps 653 mmHg 57%
    23:00 +24°C° 0 mm 3 mps 653 mmHg 61%

    22 October, Tuesday

    Time Temperature Precipitation Wind Pressure Humidity
    00:00 +22°C° 0 mm 3 mps 653 mmHg 65%
    01:00 +21°C° 0 mm 3 mps 652 mmHg 69%
    02:00 +20°C° 0 mm 2 mps 652 mmHg 71%
    03:00 +19°C° 0 mm 2 mps 652 mmHg 73%
    04:00 +19°C° 0 mm 2 mps 652 mmHg 75%
    05:00 +20°C° 0 mm 2 mps 652 mmHg 68%
    06:00 +21°C° 0 mm 2 mps 653 mmHg 61%
    07:00 +23°C° 0 mm 2 mps 653 mmHg 54%
    08:00 +27°C° 0 mm 2 mps 654 mmHg 41%
    09:00 +30°C° 0 mm 2 mps 655 mmHg 27%
    10:00 +35°C° 0 mm 2 mps 655 mmHg 13%
    11:00 +36°C° 0 mm 2 mps 655 mmHg 12%
    12:00 +38°C° 0 mm 2 mps 654 mmHg 10%
    13:00 +40°C° 0 mm 2 mps 654 mmHg 8%
    14:00 +39°C° 0 mm 2 mps 653 mmHg 9%
    15:00 +39°C° 0 mm 2 mps 653 mmHg 9%
    16:00 +39°C° 0 mm 2 mps 652 mmHg 9%
    17:00 +35°C° 0 mm 3 mps 652 mmHg 17%
    18:00 +32°C° 0 mm 4 mps 652 mmHg 24%
    19:00 +28°C° 0 mm 4 mps 652 mmHg 32%
    20:00 +26°C° 0 mm 4 mps 652 mmHg 40%
    21:00 +25°C° 0 mm 3 mps 652 mmHg 47%
    22:00 +22°C° 0 mm 3 mps 652 mmHg 54%
    23:00 +21°C° 0 mm 2 mps 652 mmHg 58%
    Show more